SL-16 DEB, 22362

Orbit data source: Space-Track

SL-16 DEB, 22362 is space debris in LEO originally from a launch on Fri, 25 Dec 1992 UTC launched from the Tyuratam Missile And Space Complex (TTMTR). Debris objects in space refer to the collection of defunct objects orbiting the Earth. Examples of debris include non-operational satellites, rocket bodies, and fragments generated from explosions, collisions, or faulty payload assembly.

Loading next visibility...
Identifier
22362, 1992-093BB
Orbit
LEO
Country
Flag of CISCIS
Related business
Manufacturer
Unknown
Mission
Spacecraft
Bus & Motor
Unknown
Mass
Unknown
Launch date (UTC)
1992-12-25 (33 years ago)
Launch vehicle
Unknown
Launch site
Tyuratam Missile And Space Complex (TTMTR)
Object type
Payload
Rocket body
Debris
Shape & HBR
Unknown shape, 0.1 m
Radar Cross Section
Small (<0.1 m²)

Expand to show TLE details & history
Last TLE update: 12 hours ago

TLE from 12 hours ago
0 SL-16 DEB
1 22362U 92093BB  26036.97275905  .00003155  00000-0  22849-2 0  9990
2 22362  70.8953  15.3088 0186667 341.0628  82.3472 13.89277091662919
Epoch: 2026-02-05T23:20Z
TLE epoch observation values (Epoch: 2026-02-05T23:20:46.381Z)
Latitude
59.43547°
Longitude
-75.30864°
Altitude
925.038 km
Speed
7.403 km/s
True Right ascension
03h 24m 00s
True Declination
59° 17' 17"
Sunlit
Object was in daylight at epoch
Visualization orbit readout
Latitude
Unknown
Longitude
Unknown
Altitude
Unknown
Speed
Unknown
Apparent Right ascension
Unknown
Apparent Declination
Unknown
Sunlit
N/A
Visualization observer readout
Local Sidereal Time
13:54:11
Azimuth
Unknown
Elevation
Unknown
Doppler factor
Unknown
Orbital elements
Apogee altitude
1,065.527 km
Perigee altitude
792.722 km
Semi-major axis
7,307.262 km
Eccentricity
0.01867
Inclination
70.8953°
RAAN
15.3088°
Arg. of periapsis
341.0628°
True anomaly
84.47331°
Mean anomaly
82.3472°
Eccentric anomaly
83.40966°
Mean motion
3.47465 °/min
Orbital period
103.61 mins
BSTAR
0.0022849
Loading maneuver chart data...
Computing Atmospheric mass density...
Loading historical data...
Loading historical data...
Loading historical data...
Loading historical data...
Loading historical data...
Loading historical data...
Loading historical data...

Documentation

Showing up to 5 results
|